Toluca Jose Maria, Mexico

3:14 AM CDT on April 25, 2017 (GMT -0500)
Lic Adolfo Lopez Mateos International

Weather History for MMTO - November, 2011

Change the Weather History Date:

Monday, November 21, 2011

  Actual Average Record
Temperature  
Mean Temperature 55 °F -  
Max Temperature 71 °F 67 °F 73 °F (2003)
Min Temperature 39 °F 34 °F 26 °F (1999)
Degree Days  
Heating Degree Days 10    
Growing Degree Days 5 (Base 50)    
Moisture  
Dew Point 40 °F    
Average Humidity 65    
Maximum Humidity 93    
Minimum Humidity 25    
Precipitation  
Precipitation 0.00 in - - ()
Sea Level Pressure  
Sea Level Pressure 30.26 in    
Wind  
Wind Speed 2 mph ()    
Max Wind Speed 18 mph    
Max Gust Speed -    
Visibility 7.7 miles    
Events      
Averages and records for this station are not official NWS values.
T = Trace of Precipitation, MM = Missing Value Source: Averaged Metar Reports

Daily Weather History Graph

Daily Weather History Graph

Search for Another Location

Airport or City:

Trip Planner

Search our weather history database for the weather conditions in past years. The results will help you decide how hot, cold, wet, or windy it might be!

Date:

Astronomy

Nov. 21, 2011 Rise Set
Actual Time 6:49 AM CST 5:58 PM CST
Civil Twilight 6:26 AM CST 6:21 PM CST
Nautical Twilight 5:59 AM CST 6:48 PM CST
Astronomical Twilight 5:32 AM CST 7:15 PM CST
Moon 2:57 AM CST (11/21) 2:59 PM CST (11/21)
Length of Visible Light 11h 55m
Length of Day
11h 09m
Waning Crescent, 17% of the Moon is Illuminated
Nov 21
Waning Crescent
Nov 25
New
Dec 2
First Quarter
Dec 10
Full
Dec 17
Last Quarter

Hourly Weather History & Observations

Time (CST) Temp. Dew Point Humidity Pressure Visibility Wind Dir Wind Speed Gust Speed Precip Events Conditions
12:41 AM 46.4 °F 41.0 °F 81% 30.44 in 5.0 mi Calm Calm - N/A   Partly Cloudy
2:49 AM 41.0 °F 37.4 °F 87% 29.90 in 5.0 mi Calm Calm - N/A   Scattered Clouds
3:41 AM 39.2 °F 37.4 °F 93% 30.43 in 4.0 mi Calm Calm - N/A   Partly Cloudy
4:41 AM 41.0 °F 37.4 °F 87% 30.42 in 3.0 mi Calm Calm - N/A   Partly Cloudy
5:45 AM 39.2 °F 37.4 °F 93% 30.01 in 3.0 mi Calm Calm - N/A   Scattered Clouds
6:46 AM 39.2 °F 35.6 °F 87% 30.46 in 5.0 mi Calm Calm - N/A   Mostly Cloudy
7:43 AM 41.0 °F 39.2 °F 93% 30.42 in 4.0 mi Calm Calm - N/A   Mostly Cloudy
8:44 AM 46.4 °F 41.0 °F 81% 30.10 in 4.0 mi Calm Calm - N/A   Mostly Cloudy
9:45 AM 55.4 °F 42.8 °F 63% 30.51 in 7.0 mi South 3.5 mph - N/A   Mostly Cloudy
10:46 AM 62.6 °F 41.0 °F 45% 30.49 in 10.0 mi Calm Calm - N/A   Mostly Cloudy
11:45 AM 66.2 °F 39.2 °F 37% 29.95 in 10.0 mi East 5.8 mph - N/A   Mostly Cloudy
12:45 PM 68.0 °F 39.2 °F 35% 30.42 in 10.0 mi ESE 5.8 mph - N/A   Mostly Cloudy
1:47 PM 69.8 °F 35.6 °F 28% 30.37 in 10.0 mi NNW 3.5 mph - N/A   Mostly Cloudy
2:45 PM 69.8 °F 35.6 °F 28% 30.02 in 10.0 mi ENE 18.4 mph - N/A   Mostly Cloudy
3:44 PM 71.6 °F 33.8 °F 25% 30.32 in 10.0 mi SSE 6.9 mph - N/A   Mostly Cloudy
4:40 PM 68.0 °F 41.0 °F 37% 30.33 in 10.0 mi South 11.5 mph - N/A   Mostly Cloudy
5:46 PM 62.6 °F 44.6 °F 52% 29.91 in 10.0 mi SSE 13.8 mph - N/A   Mostly Cloudy
6:45 PM 57.2 °F 44.6 °F 63% 30.37 in 10.0 mi SSE 6.9 mph - N/A   Scattered Clouds
7:43 PM 53.6 °F 42.8 °F 67% 30.40 in 10.0 mi SSE 3.5 mph - N/A   Scattered Clouds
8:44 PM 55.4 °F 44.6 °F 67% 29.98 in 10.0 mi Calm Calm - N/A   Scattered Clouds
9:42 PM 50.0 °F 42.8 °F 76% 30.45 in 10.0 mi Calm Calm - N/A   Scattered Clouds
10:44 PM 48.2 °F 42.8 °F 82% 30.45 in 8.0 mi NE 3.5 mph - N/A   Scattered Clouds
11:47 PM 46.4 °F 41.0 °F 81% 29.93 in 8.0 mi Calm Calm - N/A   Scattered Clouds